This is the latest recevied weather packets stored in our database for station/object KJ5SC. If no packets are shown the sender has not sent any weather packets the latest 10 day(s).
| Time | Temp. | Humidity | Pressure | Rain* | Wind** | Luminosity | Snow |
|---|---|---|---|---|---|---|---|
| 1787854256 | 38.33° C | 43% | 1016.8 hPa | 0 mm | - | 768 W/m² | - |
| 1787853956 | 38.33° C | 42% | 1016.9 hPa | 0 mm | - | 772 W/m² | - |
| 1787853650 | 38.33° C | 41% | 1017 hPa | 0 mm | - | 784 W/m² | - |
| 1787853349 | 37.78° C | 43% | 1017 hPa | 0 mm | - | 778 W/m² | - |
| 1787853044 | 37.78° C | 44% | 1016.9 hPa | 0 mm | - | 752 W/m² | - |
| 1787852744 | 37.22° C | 43% | 1017.2 hPa | 0 mm | - | 747 W/m² | - |
| 1787852443 | 37.22° C | 42% | 1017.2 hPa | 0 mm | - | 221 W/m² | - |
| 1787852138 | 37.22° C | 45% | 1017.2 hPa | 0 mm | - | 759 W/m² | - |
| 1787851833 | 37.22° C | 44% | 1017.4 hPa | 0 mm | - | 744 W/m² | - |
| 1787851532 | 37.22° C | 44% | 1017.4 hPa | 0 mm | - | 731 W/m² | - |
| 1787851232 | 37.22° C | 45% | 1017.6 hPa | 0 mm | - | 719 W/m² | - |
| 1787850928 | 36.67° C | 46% | 1017.6 hPa | 0 mm | - | 711 W/m² | - |
| 1787850624 | 36.67° C | 47% | 1017.5 hPa | 0 mm | - | 697 W/m² | - |
| 1787850319 | 36.67° C | 46% | 1017.6 hPa | 0 mm | - | 692 W/m² | - |
| 1787850015 | 36.11° C | 48% | 1017.6 hPa | 0 mm | - | 692 W/m² | - |
| 1787849708 | 36.67° C | 47% | 1017.8 hPa | 0 mm | - | 689 W/m² | - |
| 1787849403 | 36.11° C | 48% | 1017.7 hPa | 0 mm | - | 677 W/m² | - |
| 1787849101 | 36.11° C | 48% | 1017.7 hPa | 0 mm | - | 672 W/m² | - |
| 1787848796 | 36.11° C | 47% | 1018 hPa | 0 mm | - | 670 W/m² | - |
| 1787848495 | 36.11° C | 48% | 1017.9 hPa | 0 mm | - | 660 W/m² | - |
| 1787848190 | 35.56° C | 48% | 1017.8 hPa | 0 mm | - | 652 W/m² | - |
| 1787847890 | 35.56° C | 52% | 1017.9 hPa | 0 mm | - | 633 W/m² | - |
| 1787847585 | 35° C | 51% | 1018 hPa | 0 mm | - | 509 W/m² | - |
| 1787847281 | 35.56° C | 52% | 1018 hPa | 0 mm | - | 436 W/m² | - |
| 1787846978 | 35° C | 54% | 1017.8 hPa | 0 mm | - | 619 W/m² | - |
* Rain latest hour (hover to see other rain measurements)
** Current wind speed in m/s (hover to see current wind gust speed)